| time (UTC) | temp C | wind direction | speed KPH | gust KPH | rain 1hr cm | rain 24hr cm | rain mn cm | humidity % | barometer mb |
| 20260507061118 | 9 | 105 | 3.2 | 6.4 | 0.00 | 0.00 | 0.00 | 37 | 1015.9 |
| 20260507060118 | 9 | 101 | 4.8 | 8.0 | 0.00 | 0.00 | 0.00 | 36 | 1015.8 |
| 20260507055119 | 9 | 93 | 3.2 | 4.8 | 0.00 | 0.00 | 0.00 | 35 | 1015.8 |
| 20260507054119 | 8 | 95 | 3.2 | 6.4 | 0.00 | 0.00 | 0.00 | 37 | 1015.8 |
| 20260507053118 | 8 | 109 | 3.2 | 4.8 | 0.00 | 0.00 | 0.00 | 35 | 1015.7 |
| 20260507052118 | 8 | 71 | 1.6 | 3.2 | 0.00 | 0.00 | 0.00 | 38 | 1015.8 |
| 20260507051117 | 8 | 329 | 1.6 | 3.2 | 0.00 | 0.00 | 0.00 | 37 | 1015.8 |
| 20260507050117 | 7 | 125 | 3.2 | 6.4 | 0.00 | 0.00 | 0.00 | 39 | 1015.8 |
| 20260507045118 | 3 | 16 | 4.8 | 6.4 | 0.00 | 0.00 | 0.00 | 49 | 1015.8 |
| 20260507044118 | 3 | 44 | 3.2 | 6.4 | 0.00 | 0.00 | 0.00 | 48 | 1015.8 |
| 20260507043117 | 3 | 20 | 1.6 | 1.6 | 0.00 | 0.00 | 0.00 | 48 | 1015.6 |
| 20260507042119 | 3 | 13 | 3.2 | 4.8 | 0.00 | 0.00 | 0.00 | 48 | 1015.7 |
| 20260507041119 | 3 | 120 | 1.6 | 3.2 | 0.00 | 0.00 | 0.00 | 49 | 1015.7 |
| 20260507040118 | 3 | 27 | 1.6 | 3.2 | 0.00 | 0.00 | 0.00 | 49 | 1015.6 |
| 20260507035119 | 3 | 20 | 1.6 | 4.8 | 0.00 | 0.00 | 0.00 | 50 | 1015.5 |
| 20260507034118 | 3 | 7 | 1.6 | 4.8 | 0.00 | 0.00 | 0.00 | 50 | 1015.5 |
| 20260507033117 | 3 | 321 | 1.6 | 6.4 | 0.00 | 0.00 | 0.00 | 50 | 1015.5 |
| 20260507032118 | 3 | 38 | 3.2 | 6.4 | 0.00 | 0.00 | 0.00 | 50 | 1015.4 |
| 20260507031119 | 3 | 26 | 3.2 | 4.8 | 0.00 | 0.00 | 0.00 | 50 | 1015.4 |
| 20260507030119 | 3 | 25 | 1.6 | 4.8 | 0.00 | 0.00 | 0.00 | 50 | 1015.5 |
| 20260507025138 | 3 | 352 | 1.6 | 4.8 | 0.00 | 0.00 | 0.00 | 50 | 1015.4 |
| 20260507024120 | 3 | 29 | 1.6 | 4.8 | 0.00 | 0.00 | 0.00 | 50 | 1015.5 |
| 20260507023118 | 3 | 152 | 1.6 | 1.6 | 0.00 | 0.00 | 0.00 | 49 | 1015.5 |
| 20260507022118 | 3 | 44 | 3.2 | 4.8 | 0.00 | 0.00 | 0.00 | 49 | 1015.5 |
| 20260507021118 | 3 | 15 | 1.6 | 4.8 | 0.00 | 0.00 | 0.00 | 50 | 1015.5 |
| 20260507020139 | 3 | 52 | 1.6 | 3.2 | 0.00 | 0.00 | 0.00 | 50 | 1015.4 |
| 20260507015138 | 3 | 7 | 1.6 | 3.2 | 0.00 | 0.00 | 0.00 | 49 | 1015.3 |
| 20260507014139 | 3 | 335 | 1.6 | 4.8 | 0.00 | 0.00 | 0.00 | 48 | 1015.5 |
| 20260507013117 | 3 | 125 | 1.6 | 1.6 | 0.00 | 0.00 | 0.00 | 49 | 1015.3 |
| 20260507012118 | 3 | 81 | 1.6 | 3.2 | 0.00 | 0.00 | 0.00 | 49 | 1015.3 |
| 20260507011118 | 3 | 328 | 1.6 | 3.2 | 0.00 | 0.00 | 0.00 | 48 | 1015.3 |
| 20260507010117 | 3 | 53 | 3.2 | 6.4 | 0.00 | 0.00 | 0.00 | 47 | 1015.3 |
| 20260507005118 | 4 | 349 | 0.0 | 1.6 | 0.00 | 0.00 | 0.00 | 47 | 1015.2 |
| 20260507004119 | 4 | 50 | 1.6 | 3.2 | 0.00 | 0.00 | 0.00 | 50 | 1015.1 |
| 20260507003118 | 4 | 37 | 1.6 | 4.8 | 0.00 | 0.00 | 0.00 | 45 | 1015.1 |
| 20260507002141 | 4 | 357 | 1.6 | 3.2 | 0.00 | 0.00 | 0.00 | 45 | 1015.1 |
| 20260507001117 | 5 | 234 | 1.6 | 1.6 | 0.00 | 0.00 | 0.00 | 45 | 1015.1 |
| 20260507000119 | 5 | 14 | 1.6 | 3.2 | 0.00 | 0.00 | 0.00 | 43 | 1015.1 |
| 20260506235117 | 5 | 60 | 1.6 | 3.2 | 0.00 | 0.00 | 0.00 | 44 | 1015.1 |
| 20260506234118 | 5 | 332 | 1.6 | 1.6 | 0.00 | 0.00 | 0.00 | 47 | 1015.1 |
| 20260506233117 | 5 | 26 | 1.6 | 6.4 | 0.00 | 0.00 | 0.00 | 50 | 1015.1 |
| 20260506232118 | 5 | 320 | 3.2 | 8.0 | 0.00 | 0.00 | 0.00 | 51 | 1015.1 |
| 20260506231118 | 5 | 234 | 0.0 | 1.6 | 0.00 | 0.00 | 0.00 | 54 | 1015.0 |
| 20260506230118 | 5 | 306 | 1.6 | 3.2 | 0.00 | 0.00 | 0.00 | 54 | 1015.1 |
| 20260506225118 | 5 | 316 | 1.6 | 1.6 | 0.00 | 0.00 | 0.00 | 57 | 1015.0 |
| 20260506224118 | 5 | 314 | 1.6 | 3.2 | 0.00 | 0.00 | 0.00 | 58 | 1014.9 |
| 20260506223117 | 5 | 354 | 1.6 | 4.8 | 0.00 | 0.00 | 0.00 | 65 | 1014.9 |
| 20260506222118 | 4 | 334 | 1.6 | 3.2 | 0.00 | 0.00 | 0.00 | 77 | 1014.9 |
| 20260506221137 | 4 | 40 | 1.6 | 3.2 | 0.00 | 0.00 | 0.00 | 84 | 1014.8 |
| 20260506220118 | 4 | 58 | 1.6 | 1.6 | 0.00 | 0.00 | 0.00 | 88 | 1014.8 |
| 20260506215118 | 5 | 50 | 0.0 | 1.6 | 0.00 | 0.00 | 0.00 | 88 | 1014.8 |
| 20260506214119 | 5 | 67 | 1.6 | 3.2 | 0.00 | 0.00 | 0.00 | 86 | 1014.7 |
| 20260506213117 | 5 | 12 | 1.6 | 1.6 | 0.00 | 0.00 | 0.00 | 86 | 1014.7 |
| 20260506212118 | 5 | 40 | 1.6 | 3.2 | 0.00 | 0.00 | 0.00 | 84 | 1014.7 |
| 20260506211118 | 5 | 40 | 1.6 | 1.6 | 0.00 | 0.00 | 0.00 | 85 | 1014.7 |
| 20260506210118 | 4 | 33 | 1.6 | 1.6 | 0.00 | 0.00 | 0.00 | 85 | 1014.6 |
| 20260506205118 | 6 | 157 | 1.6 | 3.2 | 0.00 | 0.00 | 0.00 | 72 | 1014.6 |
| 20260506204118 | 6 | 201 | 1.6 | 1.6 | 0.00 | 0.00 | 0.00 | 72 | 1014.5 |
| 20260506203118 | 6 | 135 | 0.0 | 1.6 | 0.00 | 0.00 | 0.00 | 74 | 1014.4 |
| 20260506202118 | 6 | 172 | 1.6 | 3.2 | 0.00 | 0.00 | 0.00 | 72 | 1014.3 |
| 20260506201118 | 6 | 222 | 1.6 | 3.2 | 0.00 | 0.00 | 0.00 | 71 | 1014.3 |
| 20260506200119 | 6 | 206 | 1.6 | 1.6 | 0.00 | 0.00 | 0.00 | 70 | 1014.3 |
| 20260506195118 | 6 | 262 | 1.6 | 1.6 | 0.00 | 0.00 | 0.00 | 68 | 1014.3 |
| 20260506194119 | 6 | 195 | 3.2 | 3.2 | 0.00 | 0.00 | 0.00 | 68 | 1014.3 |
| 20260506193116 | 6 | 211 | 3.2 | 3.2 | 0.00 | 0.00 | 0.00 | 67 | 1014.3 |
| 20260506192119 | 6 | 53 | 1.6 | 1.6 | 0.00 | 0.00 | 0.00 | 66 | 1014.3 |
| 20260506191118 | 7 | 180 | 1.6 | 3.2 | 0.00 | 0.00 | 0.00 | 66 | 1014.3 |
| 20260506190119 | 7 | 194 | 3.2 | 6.4 | 0.00 | 0.00 | 0.00 | 65 | 1014.3 |
| 20260506185117 | 7 | 201 | 4.8 | 6.4 | 0.00 | 0.00 | 0.00 | 66 | 1014.3 |
| 20260506184118 | 7 | 192 | 3.2 | 4.8 | 0.00 | 0.00 | 0.00 | 66 | 1014.3 |
| 20260506183117 | 7 | 204 | 8.0 | 12.9 | 0.00 | 0.00 | 0.00 | 64 | 1014.3 |
| 20260506182119 | 7 | 194 | 8.0 | 11.3 | 0.00 | 0.00 | 0.00 | 64 | 1014.2 |
| 20260506181118 | 7 | 214 | 4.8 | 9.7 | 0.00 | 0.00 | 0.00 | 65 | 1014.1 |
| 20260506180118 | 7 | 200 | 9.7 | 14.5 | 0.00 | 0.00 | 0.00 | 62 | 1014.3 |
| 20260506175118 | 8 | 201 | 6.4 | 9.7 | 0.00 | 0.00 | 0.00 | 57 | 1014.3 |
| 20260506174119 | 8 | 209 | 8.0 | 12.9 | 0.00 | 0.00 | 0.00 | 55 | 1014.1 |
| 20260506173118 | 8 | 206 | 3.2 | 6.4 | 0.00 | 0.00 | 0.00 | 54 | 1014.1 |
| 20260506172119 | 8 | 167 | 3.2 | 6.4 | 0.00 | 0.00 | 0.00 | 54 | 1014.1 |
| 20260506171118 | 8 | 195 | 8.0 | 12.9 | 0.00 | 0.00 | 0.00 | 54 | 1014.0 |
| 20260506170118 | 8 | 119 | 3.2 | 6.4 | 0.00 | 0.00 | 0.00 | 51 | 1014.0 |
| 20260506165138 | 9 | 157 | 3.2 | 8.0 | 0.00 | 0.00 | 0.00 | 51 | 1014.0 |
| 20260506164118 | 9 | 118 | 3.2 | 8.0 | 0.00 | 0.00 | 0.00 | 49 | 1014.0 |
| 20260506163117 | 8 | 165 | 4.8 | 12.9 | 0.00 | 0.00 | 0.00 | 50 | 1013.9 |
| 20260506162118 | 8 | 180 | 4.8 | 14.5 | 0.00 | 0.00 | 0.00 | 52 | 1013.9 |
| 20260506161118 | 8 | 177 | 4.8 | 9.7 | 0.00 | 0.00 | 0.00 | 55 | 1013.9 |
| 20260506160139 | 8 | 192 | 4.8 | 14.5 | 0.00 | 0.00 | 0.00 | 53 | 1013.9 |
| 20260506155118 | 8 | 179 | 6.4 | 14.5 | 0.00 | 0.00 | 0.00 | 55 | 1013.9 |
| 20260506154138 | 7 | 187 | 6.4 | 12.9 | 0.00 | 0.00 | 0.00 | 57 | 1014.0 |
| 20260506153118 | 8 | 161 | 4.8 | 11.3 | 0.00 | 0.00 | 0.00 | 55 | 1014.1 |
| 20260506152139 | 8 | 158 | 6.4 | 14.5 | 0.00 | 0.00 | 0.00 | 54 | 1014.2 |
| 20260506151117 | 8 | 184 | 8.0 | 17.7 | 0.00 | 0.00 | 0.00 | 53 | 1014.2 |
| 20260506150118 | 8 | 193 | 8.0 | 19.3 | 0.00 | 0.00 | 0.00 | 54 | 1014.1 |
| 20260506145118 | 8 | 199 | 12.9 | 19.3 | 0.00 | 0.00 | 0.00 | 50 | 1014.1 |
| 20260506144118 | 9 | 196 | 6.4 | 16.1 | 0.00 | 0.00 | 0.00 | 48 | 1014.0 |
| 20260506143117 | 8 | 190 | 4.8 | 9.7 | 0.00 | 0.00 | 0.00 | 49 | 1013.9 |
| 20260506142118 | 9 | 206 | 6.4 | 16.1 | 0.00 | 0.00 | 0.00 | 49 | 1014.0 |
| 20260506141118 | 9 | 188 | 4.8 | 12.9 | 0.00 | 0.00 | 0.00 | 51 | 1014.0 |
| 20260506140119 | 9 | 104 | 6.4 | 16.1 | 0.00 | 0.00 | 0.00 | 49 | 1014.1 |
| 20260506135118 | 9 | 137 | 4.8 | 9.7 | 0.00 | 0.00 | 0.00 | 47 | 1014.1 |
| 20260506134119 | 9 | 170 | 4.8 | 9.7 | 0.00 | 0.00 | 0.00 | 51 | 1014.0 |
| 20260506133118 | 8 | 184 | 4.8 | 12.9 | 0.00 | 0.00 | 0.00 | 49 | 1014.0 |
| 20260506132139 | 8 | 177 | 8.0 | 24.1 | 0.00 | 0.00 | 0.00 | 50 | 1013.8 |
| 20260506131118 | 9 | 204 | 8.0 | 20.9 | 0.00 | 0.00 | 0.00 | 51 | 1014.0 |
| 20260506130117 | 9 | 190 | 6.4 | 12.9 | 0.00 | 0.00 | 0.00 | 51 | 1014.0 |
| 20260506125137 | 7 | 202 | 17.7 | 37.0 | 0.00 | 0.00 | 0.00 | 62 | 1014.0 |
| 20260506124118 | 7 | 150 | 6.4 | 12.9 | 0.00 | 0.00 | 0.00 | 62 | 1014.0 |
| 20260506123118 | 7 | 199 | 14.5 | 24.1 | 0.00 | 0.00 | 0.00 | 60 | 1014.1 |
| 20260506122118 | 7 | 194 | 9.7 | 19.3 | 0.00 | 0.00 | 0.00 | 66 | 1014.1 |
| 20260506121118 | 7 | 206 | 14.5 | 24.1 | 0.00 | 0.00 | 0.00 | 62 | 1013.9 |
| 20260506120119 | 7 | 197 | 16.1 | 25.7 | 0.00 | 0.00 | 0.00 | 68 | 1013.9 |
| 20260506115137 | 7 | 214 | 8.0 | 14.5 | 0.00 | 0.00 | 0.00 | 68 | 1014.1 |
| 20260506114118 | 7 | 195 | 12.9 | 20.9 | 0.00 | 0.00 | 0.00 | 65 | 1014.1 |
| 20260506113117 | 7 | 188 | 11.3 | 20.9 | 0.00 | 0.00 | 0.00 | 58 | 1013.8 |
| 20260506112118 | 8 | 197 | 9.7 | 19.3 | 0.00 | 0.00 | 0.00 | 57 | 1013.9 |
| 20260506111137 | 7 | 189 | 11.3 | 20.9 | 0.00 | 0.00 | 0.00 | 61 | 1013.9 |
| 20260506110118 | 7 | 197 | 19.3 | 27.4 | 0.00 | 0.00 | 0.00 | 65 | 1013.8 |
| 20260506105117 | 7 | 202 | 12.9 | 20.9 | 0.00 | 0.00 | 0.00 | 62 | 1013.9 |
| 20260506104119 | 8 | 199 | 9.7 | 16.1 | 0.00 | 0.00 | 0.00 | 57 | 1013.8 |
| 20260506103118 | 8 | 197 | 11.3 | 16.1 | 0.00 | 0.00 | 0.00 | 56 | 1013.8 |
| 20260506102118 | 8 | 199 | 8.0 | 14.5 | 0.00 | 0.00 | 0.00 | 56 | 1013.8 |
| 20260506101117 | 10 | 21 | 3.2 | 4.8 | 0.00 | 0.00 | 0.00 | 52 | 1013.8 |
| 20260506100118 | 11 | 131 | 4.8 | 11.3 | 0.00 | 0.00 | 0.00 | 39 | 1013.6 |
| 20260506095117 | 9 | 99 | 3.2 | 4.8 | 0.00 | 0.00 | 0.00 | 45 | 1013.6 |
| 20260506094158 | 10 | 196 | 3.2 | 9.7 | 0.00 | 0.00 | 0.00 | 41 | 1013.5 |
| 20260506093118 | 10 | 74 | 3.2 | 11.3 | 0.00 | 0.00 | 0.00 | 32 | 1013.5 |
| 20260506092118 | 10 | 30 | 1.6 | 3.2 | 0.00 | 0.00 | 0.00 | 30 | 1013.4 |
| 20260506091117 | 10 | 346 | 4.8 | 8.0 | 0.00 | 0.00 | 0.00 | 32 | 1013.4 |
| 20260506090117 | 10 | 148 | 3.2 | 6.4 | 0.00 | 0.00 | 0.00 | 35 | 1013.4 |
| 20260506085157 | 8 | 313 | 4.8 | 9.7 | 0.00 | 0.00 | 0.00 | 44 | 1013.1 |
| 20260506084139 | 9 | 131 | 3.2 | 6.4 | 0.00 | 0.00 | 0.00 | 39 | 1013.0 |
| 20260506083118 | 8 | 329 | 3.2 | 8.0 | 0.00 | 0.00 | 0.00 | 43 | 1013.1 |
| 20260506082139 | 8 | 67 | 3.2 | 6.4 | 0.00 | 0.00 | 0.00 | 43 | 1012.9 |
| 20260506081137 | 8 | 313 | 4.8 | 9.7 | 0.00 | 0.00 | 0.00 | 45 | 1013.0 |
| 20260506080158 | 8 | 27 | 4.8 | 11.3 | 0.00 | 0.00 | 0.00 | 47 | 1012.8 |
| 20260506073117 | 8 | 298 | 3.2 | 9.7 | 0.00 | 0.00 | 0.00 | 47 | 1012.6 |
| 20260506072118 | 8 | 131 | 4.8 | 9.7 | 0.00 | 0.00 | 0.00 | 48 | 1012.6 |
| 20260506071117 | 8 | 77 | 1.6 | 4.8 | 0.00 | 0.00 | 0.00 | 48 | 1012.6 |
| 20260506070118 | 7 | 305 | 4.8 | 9.7 | 0.00 | 0.00 | 0.00 | 51 | 1012.6 |
| 20260506062118 | 6 | 26 | 3.2 | 8.0 | 0.00 | 0.00 | 0.00 | 58 | 1012.4 |